Weather History for Eagle River, WI

Change the Weather History Date:

Thursday, April 3, 2014

  Actual Average Record
Temperature  
Mean Temperature 28 °F -  
Max Temperature 35 °F 46 °F 57 °F (2005)
Min Temperature 23 °F 25 °F 1 °F (2013)
Degree Days  
Heating Degree Days 36    
Moisture  
Dew Point 18 °F    
Average Humidity 64    
Maximum Humidity 99    
Minimum Humidity 48    
Precipitation  
Precipitation 0.00 in - - ()
Sea Level Pressure  
Sea Level Pressure 30.01 in    
Wind  
Wind Speed 10 mph (East)    
Max Wind Speed 17 mph    
Max Gust Speed 26 mph    
Visibility 8 miles    
Events Snow    
Averages and records for this station are not official NWS values.
T = Trace of Precipitation, MM = Missing Value Source: NWS Daily Summary

Daily Weather History Graph

Daily Weather History Graph

Search for Another Location

Airport:

Trip Planner

Search our weather history database for the weather conditions in past years. The results will help you decide how hot, cold, wet, or windy it might be!

Date:

Astronomy

Apr. 03, 2014 Rise Set
Actual Time 6:33 AM CDT 7:28 PM CDT
Civil Twilight 6:02 AM CDT 7:58 PM CDT
Nautical Twilight 5:26 AM CDT 8:34 PM CDT
Astronomical Twilight 4:48 AM CDT 9:13 PM CDT
Moon 8:51 AM CDT (4/3) 11:58 PM CDT (4/3)
Length of Visible Light 13h 55m
Length of Day
12h 55m
Waxing Crescent, 17% of the Moon is Illuminated
Apr 3
Waxing Crescent
Apr 7
First Quarter
Apr 15
Full
Apr 22
Last Quarter
Apr 29
New

Hourly Weather History & Observations

Time (CDT) Temp. Windchill Dew Point Humidity Pressure Visibility Wind Dir Wind Speed Gust Speed Precip Events Conditions
12:15 AM 30.2 °F 21.9 °F 13.1 °F 49% 30.15 in 10.0 mi East 9.2 mph - N/A   Clear
12:35 AM 29.8 °F 21.5 °F 14.7 °F 53% 30.15 in 10.0 mi East 9.2 mph - N/A   Scattered Clouds
12:55 AM 30.0 °F 23.2 °F 16.2 °F 56% 30.15 in 10.0 mi East 6.9 mph - N/A   Scattered Clouds
1:15 AM 30.0 °F 22.4 °F 17.4 °F 59% 30.15 in 10.0 mi ESE 8.1 mph - N/A   Mostly Cloudy
1:35 AM 29.8 °F 21.5 °F 17.8 °F 61% 30.14 in 10.0 mi ESE 9.2 mph - N/A   Overcast
1:55 AM 29.3 °F 21.5 °F 16.9 °F 60% 30.14 in 10.0 mi East 8.1 mph - N/A   Scattered Clouds
2:15 AM 29.3 °F 23.2 °F 17.1 °F 60% 30.15 in 10.0 mi ESE 5.8 mph - N/A   Mostly Cloudy
2:35 AM 28.9 °F 23.9 °F 17.1 °F 61% 30.15 in 10.0 mi ESE 4.6 mph - N/A   Overcast
2:55 AM 28.8 °F 20.9 °F 14.9 °F 56% 30.16 in 10.0 mi ESE 8.1 mph - N/A   Overcast
3:15 AM 27.9 °F 19.1 °F 14.7 °F 58% 30.14 in 10.0 mi East 9.2 mph - N/A   Overcast
3:35 AM 27.5 °F 19.3 °F 15.6 °F 61% 30.14 in 10.0 mi ENE 8.1 mph - N/A   Overcast
3:55 AM 27.0 °F 18.7 °F 13.3 °F 56% 30.13 in 10.0 mi East 8.1 mph - N/A   Overcast
4:15 AM 26.4 °F 17.3 °F 12.4 °F 55% 30.13 in 10.0 mi East 9.2 mph - N/A   Overcast
4:35 AM 26.1 °F 17.6 °F 11.3 °F 54% 30.13 in 10.0 mi East 8.1 mph - N/A   Overcast
5:15 AM 25.3 °F 15.3 °F 11.5 °F 56% 30.11 in 10.0 mi East 10.4 mph - N/A   Overcast
5:35 AM 25.0 °F 16.3 °F 12.0 °F 58% 30.11 in 10.0 mi East 8.1 mph - N/A   Overcast
5:55 AM 24.8 °F 13.4 °F 11.8 °F 58% 30.10 in 10.0 mi East 12.7 mph - N/A   Overcast
6:15 AM 23.9 °F 16.8 °F 11.8 °F 60% 30.10 in 10.0 mi ESE 5.8 mph - N/A   Mostly Cloudy
6:35 AM 23.9 °F 12.9 °F 11.7 °F 60% 30.10 in 10.0 mi ESE 11.5 mph - N/A   Scattered Clouds
6:55 AM 24.1 °F 13.1 °F 12.4 °F 61% 30.11 in 10.0 mi ESE 11.5 mph - N/A   Scattered Clouds
7:15 AM 23.9 °F 13.5 °F 13.3 °F 64% 30.12 in 10.0 mi ESE 10.4 mph - N/A   Mostly Cloudy
7:35 AM 24.1 °F 13.1 °F 14.0 °F 65% 30.11 in 10.0 mi ESE 11.5 mph 16.1 mph N/A   Mostly Cloudy
7:55 AM 24.4 °F 14.2 °F 14.7 °F 67% 30.10 in 10.0 mi ESE 10.4 mph 16.1 mph N/A   Overcast
8:15 AM 24.8 °F 14.6 °F 15.4 °F 68% 30.09 in 10.0 mi East 10.4 mph - N/A   Overcast
8:35 AM 25.3 °F 16.7 °F 15.4 °F 66% 30.09 in 10.0 mi ESE 8.1 mph 17.3 mph N/A   Overcast
8:55 AM 25.7 °F 15.7 °F 16.2 °F 67% 30.08 in 10.0 mi East 10.4 mph 16.1 mph N/A   Overcast
9:15 AM 26.4 °F 18.0 °F 16.7 °F 67% 30.07 in 10.0 mi East 8.1 mph - N/A   Overcast
9:35 AM 26.6 °F 17.5 °F 16.7 °F 66% 30.08 in 10.0 mi ESE 9.2 mph - N/A   Overcast
9:55 AM 27.1 °F 18.2 °F 16.7 °F 65% 30.07 in 10.0 mi ESE 9.2 mph - N/A   Overcast
10:15 AM 27.7 °F 19.6 °F 16.7 °F 63% 30.07 in 10.0 mi East 8.1 mph - N/A   Overcast
10:35 AM 28.4 °F 19.7 °F 16.5 °F 61% 30.06 in 10.0 mi East 9.2 mph 16.1 mph N/A   Overcast
10:55 AM 29.3 °F 20.2 °F 17.2 °F 61% 30.06 in 10.0 mi ESE 10.4 mph - N/A   Mostly Cloudy
11:15 AM 30.0 °F 20.5 °F 17.2 °F 59% 30.04 in 10.0 mi East 11.5 mph - N/A   Scattered Clouds
11:35 AM 31.6 °F 21.2 °F 16.7 °F 54% 30.03 in 10.0 mi East 15.0 mph 20.7 mph N/A   Scattered Clouds
11:55 AM 31.6 °F 23.1 °F 18.0 °F 57% 30.03 in 10.0 mi East 10.4 mph 17.3 mph N/A   Overcast
12:15 PM 32.0 °F 22.5 °F 17.1 °F 54% 30.03 in 10.0 mi East 12.7 mph - N/A   Overcast
12:35 PM 32.2 °F 23.2 °F 17.1 °F 54% 30.03 in 10.0 mi ESE 11.5 mph 17.3 mph N/A   Overcast
12:55 PM 32.9 °F 23.7 °F 16.5 °F 51% 30.02 in 10.0 mi ESE 12.7 mph - N/A   Overcast
1:15 PM 33.1 °F 24.4 °F 16.2 °F 50% 30.01 in 10.0 mi ESE 11.5 mph 17.3 mph N/A   Overcast
1:35 PM 33.8 °F 23.9 °F 16.3 °F 49% 30.01 in 10.0 mi East 15.0 mph 18.4 mph N/A   Overcast
1:55 PM 34.0 °F 23.8 °F 16.5 °F 49% 29.99 in 10.0 mi East 16.1 mph 23.0 mph N/A   Overcast
2:15 PM 34.2 °F 26.2 °F 17.1 °F 50% 29.97 in 10.0 mi East 10.4 mph 18.4 mph N/A   Overcast
2:35 PM 34.7 °F 27.5 °F 18.1 °F 51% 29.96 in 10.0 mi East 9.2 mph - N/A   Overcast
2:55 PM 34.9 °F 27.7 °F 18.0 °F 50% 29.95 in 10.0 mi East 9.2 mph - N/A   Overcast
3:15 PM 34.9 °F 25.7 °F 17.4 °F 49% 29.93 in 10.0 mi East 13.8 mph 18.4 mph N/A   Overcast
3:35 PM 34.9 °F 27.1 °F 18.0 °F 50% 29.91 in 10.0 mi East 10.4 mph 18.4 mph N/A   Overcast
3:55 PM 34.9 °F 26.6 °F 17.2 °F 49% 29.90 in 10.0 mi East 11.5 mph 24.2 mph N/A   Overcast
4:15 PM 34.7 °F 26.9 °F 16.9 °F 48% 29.90 in 10.0 mi East 10.4 mph 20.7 mph N/A   Overcast
4:35 PM 34.7 °F 28.1 °F 17.4 °F 49% 29.90 in 10.0 mi East 8.1 mph 16.1 mph N/A   Overcast
4:55 PM 34.5 °F 26.7 °F 17.1 °F 49% 29.91 in 10.0 mi East 10.4 mph - N/A   Overcast
5:15 PM 34.3 °F 27.0 °F 18.3 °F 52% 29.91 in 10.0 mi East 9.2 mph - N/A   Overcast
5:35 PM 34.3 °F 25.5 °F 18.0 °F 51% 29.91 in 10.0 mi East 12.7 mph 17.3 mph N/A   Overcast
5:55 PM 34.0 °F 25.5 °F 18.5 °F 53% 29.91 in 10.0 mi East 11.5 mph - N/A   Overcast
6:15 PM 33.6 °F 22.9 °F 19.4 °F 56% 29.91 in 5.0 mi East 17.3 mph 21.9 mph N/A Snow Light Snow
6:35 PM 31.6 °F 21.2 °F 23.4 °F 71% 29.90 in 0.8 mi ESE 15.0 mph 26.5 mph N/A Snow Light Snow
6:55 PM 29.7 °F 19.1 °F 26.1 °F 86% 29.89 in 0.2 mi ESE 13.8 mph 19.6 mph N/A Snow Heavy Snow
7:15 PM 29.3 °F 21.5 °F 28.9 °F 99% 29.89 in 0.2 mi East 8.1 mph - N/A Snow Snow
7:55 PM 29.8 °F 21.5 °F 28.4 °F 94% 29.87 in 2.5 mi East 9.2 mph 18.4 mph N/A Snow Light Snow
8:15 PM 29.8 °F 20.9 °F 28.4 °F 94% 29.87 in 2.5 mi East 10.4 mph - N/A Snow Light Snow
8:35 PM 29.7 °F 23.7 °F 28.9 °F 97% 29.87 in 1.8 mi ENE 5.8 mph - N/A Snow Light Snow
8:55 PM 29.7 °F 21.3 °F 28.8 °F 96% 29.87 in 2.0 mi ENE 9.2 mph - N/A Snow Light Snow
9:15 PM 29.1 °F 20.0 °F 28.4 °F 97% 29.86 in 1.8 mi ENE 10.4 mph - N/A Snow Light Snow
9:35 PM 29.3 °F 20.8 °F 28.4 °F 96% 29.86 in 2.5 mi ENE 9.2 mph - N/A   Overcast
10:55 PM 28.0 °F 20.0 °F 27.1 °F 96% 29.84 in 1.2 mi East 8.1 mph - N/A Snow Light Snow
11:15 PM 27.9 °F 19.8 °F 27.1 °F 97% 29.83 in 1.8 mi ENE 8.1 mph - N/A Snow Light Snow
11:35 PM 27.7 °F 18.8 °F 27.1 °F 98% 29.81 in 1.0 mi ENE 9.2 mph - N/A Snow Snow
11:55 PM 27.5 °F 16.3 °F 27.0 °F 98% 29.78 in 0.8 mi ENE 13.8 mph - N/A Snow Snow